#timestamp,LO_Frequency,Hit,StdDev 
1513760415.4,286046998.2,N
1513760435.2,286046998.7,N
1513760455.0,286046998.9,N
1513760456.0,286046998.9,N
1513760475.8,286046999.3,N
1513760495.6,286046999.0,N
1513760515.5,286046999.5,N
1513760535.3,286046998.3,N
1513760555.1,286046999.0,N
1513760575.9,286046996.5,N
1513760595.7,286046997.1,N
1513760615.6,286046995.6,N
1513760635.4,286046998.0,N
1513760655.2,286046996.8,N
1513760675.1,286046996.4,N
1513760676.0,286046996.4,N
1513760695.8,286046995.8,N
1513760715.7,286046993.5,Y
1513760735.5,286047001.0,P
1513760755.3,286047001.1,N
1513760775.2,286047000.3,N
1513760795.0,286047000.9,N
1513760795.9,286047000.9,N
1513760815.8,286046999.9,N
1513760835.6,286047000.2,N
1513760855.4,286047000.4,N
1513760875.3,286046998.4,N
1513760895.1,286047001.1,N
1513760915.8,286047001.2,N
1513760935.7,286046997.0,N
1513760955.5,286046999.3,N
1513760975.4,286046999.6,N
1513760995.2,286047001.2,N
1513761015.0,286046998.5,N
1513761015.9,286046998.5,N
1513761035.8,286046998.6,N
1513761055.6,286046999.3,N
1513761075.5,286046999.1,N
1513761095.3,286046996.9,N
1513761115.1,286046997.4,N
1513761135.9,286046996.6,N
1513761155.7,286047001.2,N
1513761175.6,286047002.7,N
1513761195.4,286047002.1,N
1513761215.2,286047002.0,N
1513761235.1,286047002.1,N
1513761236.0,286047002.1,N
1513761255.8,286047003.5,N
1513761275.7,286047005.8,Y
1513761295.5,286047004.8,P
1513761315.3,286047007.0,N
1513761335.2,286047007.0,N
1513761355.0,286047006.0,N
1513761355.9,286047006.0,N
1513761375.7,286047003.0,N
1513761395.6,286047002.7,N
1513761415.4,286047002.2,N
1513761435.3,286047002.4,N
1513761455.1,286047000.5,N
1513761475.8,286047000.5,N
1513761495.7,286047000.0,N
1513761515.5,286047000.3,N
1513761535.4,286047000.9,N
1513761555.2,286046998.4,N
1513761575.0,286047000.0,N
1513761575.9,286047000.0,N
1513761595.8,286047000.9,N
1513761615.6,286046999.0,N
1513761635.5,286046996.6,N
1513761655.3,286046998.7,N
1513761675.1,286046999.1,N
1513761695.9,286046996.6,N
1513761715.7,286046997.9,N
1513761735.5,286046997.6,N
1513761755.4,286046997.7,N
1513761775.2,286046997.1,N
1513761795.1,286046998.7,N
1513761796.0,286046998.7,N
1513761815.8,286046999.4,N
1513761835.6,286046998.8,N
1513761855.5,286046998.6,N
1513761875.3,286046996.9,N
1513761895.2,286046998.6,N
1513761915.9,286046998.1,N
1513761935.7,286047001.2,N
1513761955.6,286046998.4,N
1513761975.4,286046998.7,N
1513761995.2,286047000.3,N
1513762015.1,286047001.0,N
1513762016.0,286047001.0,N
1513762035.8,286047000.6,N
1513762055.7,286047001.0,N
1513762075.5,286046996.9,N
1513762095.3,286046996.7,N
1513762115.2,286046997.1,N
1513762135.0,286047000.7,N
1513762135.9,286047000.7,N
1513762155.8,286047001.0,N
1513762175.6,286047000.9,N
1513762195.4,286047001.4,N
1513762215.3,286047001.4,N
1513762235.1,286047004.1,N
1513762255.9,286047004.0,N
1513762275.7,286047005.5,N
1513762295.5,286047002.9,N
1513762315.4,286047005.9,N
1513762335.2,286047001.9,N
1513762355.0,286047003.9,N
1513762356.0,286047003.9,N
1513762375.8,286047001.4,N
1513762395.6,286047001.9,N
1513762415.5,286047002.2,N
1513762435.3,286047002.5,N
1513762455.1,286047000.3,N
1513762475.9,286047000.5,N
1513762495.7,286047001.2,N
1513762515.6,286047001.2,N
1513762535.4,286047000.9,N
1513762555.2,286046998.5,N
1513762575.1,286047000.5,N
1513762576.0,286047000.5,N
1513762595.8,286047001.0,N
1513762615.7,286046999.2,N
1513762635.5,286046998.7,N
1513762655.3,286047000.9,N
1513762675.2,286047000.6,N
1513762695.0,286047002.5,N
1513762695.9,286047002.5,N
1513762715.7,286047003.9,N
1513762735.6,286047005.6,Y
1513762755.4,286047001.8,P
1513762775.3,286047003.9,P
1513762795.1,286047003.9,P
1513762815.8,286047003.6,Y
1513762835.7,286047002.2,P
1513762855.5,286047002.4,P
1513762875.4,286047002.6,P
1513762895.2,286046999.9,N
1513762915.0,286047002.0,N
1513762915.9,286047002.0,N
1513762935.8,286047000.6,N
1513762955.6,286046998.1,N
1513762975.5,286046998.5,N
1513762995.3,286046998.9,N
1513763015.1,286046996.5,N
1513763035.9,286046998.8,N
1513763055.7,286046998.8,N
1513763075.6,286046996.9,N
1513763095.4,286046999.4,N
1513763115.2,286047000.9,N
1513763135.1,286046998.5,N
1513763136.0,286046998.5,N
1513763155.8,286046999.9,N
1513763175.6,286047000.0,N
1513763195.5,286047002.4,N
1513763215.3,286047002.4,N
1513763235.2,286047001.7,N
1513763255.0,286047000.5,N
1513763255.9,286047000.5,N
1513763275.7,286047000.9,N
1513763295.6,286047000.5,N
1513763315.4,286046998.7,N
1513763335.3,286046999.3,N
1513763355.1,286046998.7,N
1513763356.0,286046998.7,N
1513763375.8,286046998.9,N
1513763395.7,286047000.4,N
1513763415.5,286047001.0,N
1513763435.4,286046999.7,N
1513763455.2,286047002.7,N
1513763475.0,286047000.9,N
1513763475.9,286047000.9,N
1513763495.8,286046999.8,N
1513763515.6,286047001.1,N
1513763535.5,286046998.6,N
1513763555.3,286046998.8,N
1513763575.1,286046999.0,N
1513763595.9,286046997.6,N
1513763615.7,286046997.5,N
1513763635.5,286046997.5,N
1513763655.4,286046995.7,Y
1513763675.2,286046995.3,P
1513763695.1,286046995.9,N
1513763696.0,286046995.9,N
1513763715.8,286046997.5,N
1513763735.6,286046998.4,N
1513763755.5,286046999.3,N
1513763775.3,286046998.6,N
1513763795.2,286047001.1,N
1513763815.9,286046998.7,N
1513763835.7,286047000.9,N
1513763855.6,286046998.5,N
1513763875.4,286047001.1,N
1513763895.3,286046998.6,N
1513763915.1,286046999.2,N
1513763916.0,286046999.2,N
1513763935.8,286046996.6,N
1513763955.7,286046997.2,N
1513763975.5,286046996.6,N
1513763995.3,286046999.2,N
